| time (UTC) | temp F | wind direction | speed MPH | gust MPH | rain 1hr in | rain 24hr in | rain mn in | humidity % | barometer mb |
| 20260503232110 | 60 | 283 | 0.0 | 2.0 | 0.00 | 0.00 | 0.00 | 31 | 1010.7 |
| 20260503231610 | 60 | 288 | 0.0 | 5.0 | 0.00 | 0.00 | 0.00 | 30 | 1010.6 |
| 20260503231105 | 60 | 291 | 0.0 | 4.0 | 0.00 | 0.00 | 0.00 | 30 | 1010.6 |
| 20260503230607 | 60 | 306 | 2.0 | 2.0 | 0.00 | 0.00 | 0.00 | 29 | 1010.5 |
| 20260503230110 | 60 | 292 | 0.0 | 3.0 | 0.00 | 0.00 | 0.00 | 30 | 1010.4 |
| 20260503225604 | 60 | 319 | 1.0 | 11.0 | 0.00 | 0.00 | 0.00 | 29 | 1010.4 |
| 20260503225107 | 60 | 323 | 3.0 | 5.0 | 0.00 | 0.00 | 0.00 | 29 | 1010.4 |
| 20260503224607 | 60 | 297 | 3.0 | 4.0 | 0.00 | 0.00 | 0.00 | 29 | 1010.3 |
| 20260503224110 | 60 | 266 | 0.0 | 4.0 | 0.00 | 0.00 | 0.00 | 29 | 1010.4 |
| 20260503223610 | 60 | 273 | 0.0 | 6.0 | 0.00 | 0.00 | 0.00 | 30 | 1010.4 |
| 20260503223104 | 61 | 281 | 2.0 | 7.0 | 0.00 | 0.00 | 0.00 | 28 | 1010.4 |
| 20260503222604 | 61 | 259 | 1.0 | 7.0 | 0.00 | 0.00 | 0.00 | 29 | 1010.3 |
| 20260503222110 | 61 | 307 | 2.0 | 10.0 | 0.00 | 0.00 | 0.00 | 29 | 1010.3 |
| 20260503221604 | 61 | 304 | 5.0 | 8.0 | 0.00 | 0.00 | 0.00 | 28 | 1010.2 |
| 20260503221104 | 61 | 281 | 5.0 | 5.0 | 0.00 | 0.00 | 0.00 | 29 | 1010.3 |
| 20260503220605 | 61 | 294 | 0.0 | 9.0 | 0.00 | 0.00 | 0.00 | 28 | 1010.2 |
| 20260503220107 | 61 | 306 | 2.0 | 8.0 | 0.00 | 0.00 | 0.00 | 28 | 1010.3 |
| 20260503215606 | 60 | 274 | 0.0 | 10.0 | 0.00 | 0.00 | 0.00 | 28 | 1010.3 |
| 20260503215104 | 60 | 280 | 2.0 | 6.0 | 0.00 | 0.00 | 0.00 | 29 | 1010.3 |
| 20260503214608 | 60 | 283 | 0.0 | 9.0 | 0.00 | 0.00 | 0.00 | 28 | 1010.3 |
| 20260503214105 | 60 | 304 | 2.0 | 9.0 | 0.00 | 0.00 | 0.00 | 29 | 1010.3 |
| 20260503213613 | 60 | 307 | 1.0 | 6.0 | 0.00 | 0.00 | 0.00 | 28 | 1010.3 |
| 20260503213103 | 60 | 268 | 0.0 | 17.0 | 0.00 | 0.00 | 0.00 | 28 | 1010.3 |
| 20260503212607 | 60 | 297 | 7.0 | 9.0 | 0.00 | 0.00 | 0.00 | 29 | 1010.3 |
| 20260503212105 | 60 | 288 | 2.0 | 11.0 | 0.00 | 0.00 | 0.00 | 29 | 1010.3 |
| 20260503211613 | 60 | 306 | 3.0 | 10.0 | 0.00 | 0.00 | 0.00 | 29 | 1010.3 |
| 20260503211113 | 60 | 270 | 8.0 | 10.0 | 0.00 | 0.00 | 0.00 | 29 | 1010.2 |
| 20260503210604 | 60 | 304 | 3.0 | 7.0 | 0.00 | 0.00 | 0.00 | 29 | 1010.2 |
| 20260503210110 | 60 | 287 | 0.0 | 7.0 | 0.00 | 0.00 | 0.00 | 29 | 1010.3 |
| 20260503205604 | 60 | 310 | 0.0 | 10.0 | 0.00 | 0.00 | 0.00 | 29 | 1010.2 |
| 20260503205107 | 60 | 299 | 4.0 | 9.0 | 0.00 | 0.00 | 0.00 | 29 | 1010.1 |
| 20260503204604 | 60 | 313 | 1.0 | 16.0 | 0.00 | 0.00 | 0.00 | 30 | 1010.2 |
| 20260503204103 | 60 | 296 | 5.0 | 16.0 | 0.00 | 0.00 | 0.00 | 30 | 1010.3 |
| 20260503203604 | 60 | 291 | 2.0 | 7.0 | 0.00 | 0.00 | 0.00 | 29 | 1010.2 |
| 20260503203105 | 60 | 294 | 0.0 | 5.0 | 0.00 | 0.00 | 0.00 | 29 | 1010.2 |
| 20260503202604 | 60 | 305 | 1.0 | 11.0 | 0.00 | 0.00 | 0.00 | 30 | 1010.3 |
| 20260503202107 | 60 | 283 | 3.0 | 7.0 | 0.00 | 0.00 | 0.00 | 30 | 1010.3 |
| 20260503201606 | 59 | 299 | 3.0 | 10.0 | 0.00 | 0.00 | 0.00 | 31 | 1010.4 |
| 20260503201104 | 60 | 281 | 4.0 | 6.0 | 0.00 | 0.00 | 0.00 | 31 | 1010.4 |
| 20260503200607 | 60 | 299 | 9.0 | 10.0 | 0.00 | 0.00 | 0.00 | 30 | 1010.5 |
| 20260503200113 | 59 | 312 | 0.0 | 8.0 | 0.00 | 0.00 | 0.00 | 31 | 1010.4 |
| 20260503195604 | 59 | 279 | 0.0 | 15.0 | 0.00 | 0.00 | 0.00 | 31 | 1010.7 |
| 20260503195107 | 59 | 306 | 9.0 | 15.0 | 0.00 | 0.00 | 0.00 | 31 | 1010.6 |
| 20260503194604 | 59 | 295 | 4.0 | 9.0 | 0.00 | 0.00 | 0.00 | 30 | 1010.8 |
| 20260503194104 | 59 | 323 | 0.0 | 10.0 | 0.00 | 0.00 | 0.00 | 31 | 1010.8 |
| 20260503193607 | 59 | 289 | 7.0 | 15.0 | 0.00 | 0.00 | 0.00 | 30 | 1010.8 |
| 20260503193107 | 59 | 281 | 1.0 | 11.0 | 0.00 | 0.00 | 0.00 | 32 | 1010.7 |
| 20260503192607 | 58 | 304 | 0.0 | 10.0 | 0.00 | 0.00 | 0.00 | 32 | 1010.9 |
| 20260503192108 | 58 | 297 | 12.0 | 14.0 | 0.00 | 0.00 | 0.00 | 32 | 1010.8 |
| 20260503191604 | 58 | 246 | 3.0 | 13.0 | 0.00 | 0.00 | 0.00 | 32 | 1010.9 |
| 20260503191108 | 58 | 309 | 5.0 | 9.0 | 0.00 | 0.00 | 0.00 | 33 | 1010.9 |
| 20260503190608 | 57 | 306 | 3.0 | 4.0 | 0.00 | 0.00 | 0.00 | 34 | 1011.0 |
| 20260503190105 | 58 | 295 | 2.0 | 9.0 | 0.00 | 0.00 | 0.00 | 33 | 1011.0 |
| 20260503185603 | 58 | 284 | 1.0 | 9.0 | 0.00 | 0.00 | 0.00 | 34 | 1011.1 |
| 20260503185113 | 58 | 297 | 5.0 | 12.0 | 0.00 | 0.00 | 0.00 | 32 | 1011.1 |
| 20260503184610 | 57 | 308 | 0.0 | 12.0 | 0.00 | 0.00 | 0.00 | 35 | 1011.2 |
| 20260503184104 | 56 | 295 | 7.0 | 8.0 | 0.00 | 0.00 | 0.00 | 35 | 1011.3 |
| 20260503183604 | 56 | 310 | 0.0 | 9.0 | 0.00 | 0.00 | 0.00 | 35 | 1011.3 |
| 20260503183107 | 56 | 282 | 0.0 | 10.0 | 0.00 | 0.00 | 0.00 | 35 | 1011.3 |
| 20260503182607 | 56 | 306 | 9.0 | 10.0 | 0.00 | 0.00 | 0.00 | 35 | 1011.4 |
| 20260503182104 | 56 | 289 | 0.0 | 14.0 | 0.00 | 0.00 | 0.00 | 36 | 1011.4 |
| 20260503181604 | 56 | 273 | 0.0 | 9.0 | 0.00 | 0.00 | 0.00 | 36 | 1011.2 |
| 20260503181107 | 56 | 323 | 2.0 | 10.0 | 0.00 | 0.01 | 0.00 | 37 | 1011.4 |
| 20260503180608 | 55 | 313 | 2.0 | 15.0 | 0.00 | 0.01 | 0.00 | 38 | 1011.4 |
| 20260503180104 | 55 | 281 | 6.0 | 11.0 | 0.00 | 0.01 | 0.00 | 37 | 1011.7 |
| 20260503175613 | 55 | 294 | 0.0 | 8.0 | 0.00 | 0.01 | 0.00 | 39 | 1011.5 |
| 20260503175110 | 55 | 306 | 2.0 | 13.0 | 0.00 | 0.01 | 0.00 | 39 | 1011.6 |
| 20260503174604 | 55 | 277 | 1.0 | 11.0 | 0.00 | 0.01 | 0.00 | 38 | 1011.6 |
| 20260503173548 | 54 | 338 | 1.0 | 7.0 | 0.00 | 0.01 | 0.00 | 40 | 1011.7 |
| 20260503173045 | 54 | 297 | 0.0 | 9.0 | 0.00 | 0.01 | 0.00 | 40 | 1011.7 |
| 20260503172545 | 54 | 300 | 1.0 | 9.0 | 0.00 | 0.01 | 0.00 | 39 | 1011.7 |
| 20260503172051 | 54 | 293 | 1.0 | 8.0 | 0.00 | 0.01 | 0.00 | 41 | 1011.8 |
| 20260503171544 | 53 | 306 | 1.0 | 9.0 | 0.00 | 0.01 | 0.00 | 42 | 1011.8 |
| 20260503171052 | 52 | 281 | 4.0 | 11.0 | 0.00 | 0.01 | 0.00 | 41 | 1011.8 |
| 20260503170545 | 52 | 333 | 4.0 | 9.0 | 0.00 | 0.01 | 0.00 | 41 | 1011.8 |
| 20260503150545 | 51 | 314 | 2.0 | 12.0 | 0.00 | 0.01 | 0.00 | 40 | 1012.3 |
| 20260503131050 | 49 | 304 | 4.0 | 8.0 | 0.00 | 0.01 | 0.00 | 53 | 1012.3 |
| 20260503130545 | 49 | 307 | 2.0 | 6.0 | 0.00 | 0.01 | 0.00 | 55 | 1012.3 |
| 20260503110545 | 45 | 337 | 0.0 | 6.0 | 0.00 | 0.01 | 0.00 | 59 | 1011.8 |
| 20260503081544 | 47 | 323 | 0.0 | 5.0 | 0.00 | 0.02 | 0.00 | 52 | 1010.5 |
| 20260503081047 | 47 | 333 | 3.0 | 7.0 | 0.00 | 0.02 | 0.00 | 52 | 1010.5 |
| 20260503080544 | 47 | 333 | 0.0 | 6.0 | 0.00 | 0.02 | 0.00 | 52 | 1010.3 |
| 20260503072549 | 48 | 333 | 3.0 | 6.0 | 0.00 | 0.02 | 0.00 | 51 | 1010.5 |
| 20260503072044 | 48 | 323 | 0.0 | 3.0 | 0.00 | 0.02 | 0.00 | 50 | 1010.5 |
| 20260503071547 | 48 | 314 | 0.0 | 5.0 | 0.00 | 0.02 | 0.00 | 50 | 1010.5 |
| 20260503071044 | 48 | 15 | 2.0 | 5.0 | 0.00 | 0.02 | 0.00 | 49 | 1010.4 |
| 20260503070544 | 48 | 318 | 0.0 | 6.0 | 0.00 | 0.02 | 0.00 | 49 | 1010.3 |
| 20260503055044 | 50 | 333 | 3.0 | 6.0 | 0.00 | 0.02 | 0.00 | 45 | 1010.7 |
| 20260503054553 | 50 | 319 | 4.0 | 5.0 | 0.00 | 0.02 | 0.00 | 45 | 1010.8 |
| 20260503054049 | 50 | 303 | 0.0 | 3.0 | 0.00 | 0.02 | 0.00 | 45 | 1010.7 |
| 20260503053547 | 50 | 348 | 0.0 | 9.0 | 0.00 | 0.02 | 0.00 | 45 | 1010.8 |
| 20260503053047 | 50 | 308 | 4.0 | 6.0 | 0.00 | 0.02 | 0.00 | 45 | 1010.8 |
| 20260503052544 | 51 | 333 | 0.0 | 1.0 | 0.00 | 0.02 | 0.00 | 45 | 1010.8 |
| 20260503052049 | 51 | 318 | 0.0 | 4.0 | 0.00 | 0.02 | 0.00 | 45 | 1010.9 |
| 20260503051547 | 51 | 323 | 2.0 | 5.0 | 0.00 | 0.02 | 0.00 | 45 | 1011.0 |
| 20260503051051 | 51 | 28 | 0.0 | 7.0 | 0.00 | 0.02 | 0.00 | 44 | 1011.1 |
| 20260503050547 | 51 | 323 | 3.0 | 8.0 | 0.00 | 0.02 | 0.00 | 44 | 1011.0 |
| 20260503050044 | 51 | 312 | 0.0 | 4.0 | 0.00 | 0.02 | 0.00 | 44 | 1011.1 |
| 20260503045546 | 51 | 341 | 0.0 | 2.0 | 0.00 | 0.02 | 0.00 | 44 | 1011.2 |
| 20260503045046 | 51 | 328 | 0.0 | 8.0 | 0.00 | 0.02 | 0.00 | 44 | 1011.2 |
| 20260503044544 | 51 | 333 | 2.0 | 8.0 | 0.00 | 0.02 | 0.00 | 44 | 1011.1 |
| 20260503044044 | 51 | 316 | 3.0 | 6.0 | 0.00 | 0.02 | 0.00 | 44 | 1011.1 |
| 20260503043547 | 51 | 299 | 0.0 | 4.0 | 0.00 | 0.02 | 0.00 | 44 | 1011.2 |
| 20260503043049 | 52 | 328 | 0.0 | 6.0 | 0.00 | 0.02 | 0.00 | 43 | 1011.2 |
| 20260503042544 | 52 | 121 | 0.0 | 4.0 | 0.00 | 0.02 | 0.00 | 43 | 1011.2 |
| 20260503042047 | 52 | 31 | 0.0 | 5.0 | 0.00 | 0.02 | 0.00 | 43 | 1011.1 |
| 20260503041545 | 52 | 333 | 0.0 | 6.0 | 0.00 | 0.02 | 0.00 | 43 | 1011.2 |
| 20260503041044 | 52 | 333 | 1.0 | 4.0 | 0.00 | 0.02 | 0.00 | 43 | 1011.2 |
| 20260503040552 | 52 | 328 | 0.0 | 4.0 | 0.00 | 0.02 | 0.00 | 43 | 1011.3 |
| 20260503040047 | 52 | 61 | 2.0 | 4.0 | 0.00 | 0.02 | 0.00 | 43 | 1011.3 |
| 20260503035544 | 52 | 323 | 0.0 | 3.0 | 0.00 | 0.02 | 0.00 | 43 | 1011.2 |
| 20260503035047 | 52 | 333 | 0.0 | 5.0 | 0.00 | 0.02 | 0.00 | 43 | 1011.2 |
| 20260503034553 | 52 | 285 | 2.0 | 4.0 | 0.00 | 0.02 | 0.00 | 43 | 1011.1 |
| 20260503034048 | 52 | 323 | 2.0 | 1.0 | 0.00 | 0.02 | 0.00 | 43 | 1011.1 |
| 20260503033544 | 52 | 328 | 0.0 | 3.0 | 0.00 | 0.02 | 0.00 | 43 | 1011.1 |
| 20260503033050 | 52 | 337 | 0.0 | 1.0 | 0.00 | 0.02 | 0.00 | 43 | 1011.1 |
| 20260503032553 | 53 | 346 | 0.0 | 2.0 | 0.00 | 0.02 | 0.00 | 42 | 1011.1 |
| 20260503032044 | 53 | 318 | 0.0 | 4.0 | 0.00 | 0.02 | 0.00 | 42 | 1011.1 |
| 20260503031545 | 53 | 333 | 0.0 | 4.0 | 0.00 | 0.02 | 0.00 | 41 | 1011.1 |
| 20260503031048 | 53 | 328 | 1.0 | 3.0 | 0.00 | 0.02 | 0.00 | 41 | 1011.1 |
| 20260503030544 | 53 | 323 | 2.0 | 4.0 | 0.00 | 0.02 | 0.00 | 41 | 1011.1 |
| 20260503030044 | 53 | 333 | 0.0 | 2.0 | 0.00 | 0.02 | 0.00 | 41 | 1011.1 |
| 20260503025553 | 53 | 17 | 0.0 | 0.0 | 0.00 | 0.02 | 0.00 | 41 | 1011.2 |
| 20260503025052 | 53 | 345 | 0.0 | 2.0 | 0.00 | 0.02 | 0.00 | 41 | 1011.1 |
| 20260503024547 | 54 | 323 | 0.0 | 3.0 | 0.00 | 0.02 | 0.00 | 41 | 1011.1 |
| 20260503024047 | 54 | 328 | 0.0 | 0.0 | 0.00 | 0.02 | 0.00 | 40 | 1011.1 |
| 20260503023553 | 54 | 328 | 0.0 | 4.0 | 0.00 | 0.02 | 0.00 | 40 | 1011.1 |
| 20260503023044 | 54 | 318 | 4.0 | 5.0 | 0.00 | 0.02 | 0.00 | 40 | 1011.0 |
| 20260503022544 | 54 | 297 | 0.0 | 4.0 | 0.00 | 0.02 | 0.00 | 39 | 1011.0 |
| 20260503022044 | 54 | 38 | 0.0 | 4.0 | 0.00 | 0.02 | 0.00 | 40 | 1010.9 |
| 20260503021544 | 54 | 319 | 0.0 | 4.0 | 0.00 | 0.02 | 0.00 | 39 | 1010.9 |
| 20260503021044 | 54 | 323 | 0.0 | 4.0 | 0.00 | 0.02 | 0.00 | 39 | 1011.0 |
| 20260503020546 | 54 | 323 | 1.0 | 3.0 | 0.00 | 0.02 | 0.00 | 39 | 1011.1 |
| 20260503020046 | 54 | 323 | 1.0 | 6.0 | 0.00 | 0.02 | 0.00 | 39 | 1011.1 |
| 20260503015547 | 54 | 333 | 0.0 | 5.0 | 0.00 | 0.02 | 0.00 | 39 | 1011.0 |
| 20260503015047 | 54 | 328 | 0.0 | 3.0 | 0.00 | 0.02 | 0.00 | 39 | 1011.0 |
| 20260503014545 | 55 | 333 | 0.0 | 3.0 | 0.00 | 0.02 | 0.00 | 40 | 1011.1 |
| 20260503014050 | 55 | 356 | 1.0 | 4.0 | 0.00 | 0.02 | 0.00 | 40 | 1011.2 |
| 20260503013544 | 55 | 328 | 0.0 | 2.0 | 0.00 | 0.02 | 0.00 | 40 | 1011.2 |
| 20260503013045 | 55 | 328 | 0.0 | 4.0 | 0.00 | 0.02 | 0.00 | 40 | 1011.2 |
| 20260503012544 | 55 | 306 | 0.0 | 5.0 | 0.00 | 0.02 | 0.00 | 40 | 1011.2 |
| 20260503012047 | 55 | 337 | 0.0 | 0.0 | 0.00 | 0.02 | 0.00 | 40 | 1011.2 |
| 20260503011548 | 55 | 333 | 0.0 | 4.0 | 0.00 | 0.02 | 0.00 | 39 | 1011.1 |
| 20260503011044 | 55 | 337 | 0.0 | 3.0 | 0.00 | 0.02 | 0.00 | 39 | 1011.0 |
| 20260503010549 | 55 | 316 | 0.0 | 6.0 | 0.00 | 0.02 | 0.00 | 39 | 1011.0 |
| 20260503010044 | 55 | 328 | 0.0 | 2.0 | 0.00 | 0.02 | 0.00 | 39 | 1010.9 |
| 20260503005544 | 56 | 328 | 1.0 | 2.0 | 0.00 | 0.02 | 0.00 | 39 | 1010.8 |
| 20260503005050 | 56 | 314 | 1.0 | 5.0 | 0.00 | 0.02 | 0.00 | 38 | 1010.7 |
| 20260503004547 | 56 | 316 | 0.0 | 2.0 | 0.00 | 0.02 | 0.00 | 38 | 1010.7 |
| 20260503004050 | 56 | 7 | 2.0 | 5.0 | 0.00 | 0.02 | 0.00 | 38 | 1010.6 |
| 20260503003548 | 56 | 333 | 4.0 | 7.0 | 0.00 | 0.02 | 0.00 | 38 | 1010.6 |
| 20260503003050 | 56 | 342 | 3.0 | 4.0 | 0.00 | 0.02 | 0.00 | 38 | 1010.5 |
| 20260503002547 | 56 | 333 | 0.0 | 5.0 | 0.00 | 0.02 | 0.00 | 38 | 1010.5 |
| 20260503002052 | 56 | 300 | 2.0 | 4.0 | 0.00 | 0.02 | 0.00 | 38 | 1010.5 |
| 20260503001544 | 57 | 14 | 0.0 | 6.0 | 0.00 | 0.02 | 0.00 | 37 | 1010.5 |
| 20260503001047 | 57 | 344 | 0.0 | 6.0 | 0.00 | 0.02 | 0.00 | 37 | 1010.4 |
| 20260503000547 | 57 | 333 | 0.0 | 2.0 | 0.00 | 0.02 | 0.00 | 37 | 1010.4 |
| 20260503000049 | 57 | 337 | 0.0 | 4.0 | 0.00 | 0.02 | 0.00 | 37 | 1010.4 |
| 20260502235544 | 57 | 328 | 0.0 | 5.0 | 0.00 | 0.02 | 0.00 | 37 | 1010.3 |
| 20260502235047 | 57 | 328 | 0.0 | 4.0 | 0.00 | 0.02 | 0.00 | 37 | 1010.3 |
| 20260502234550 | 58 | 312 | 0.0 | 7.0 | 0.00 | 0.02 | 0.00 | 37 | 1010.3 |
| 20260502234047 | 58 | 295 | 2.0 | 4.0 | 0.00 | 0.02 | 0.00 | 37 | 1010.3 |
| 20260502233549 | 58 | 316 | 3.0 | 5.0 | 0.00 | 0.02 | 0.00 | 36 | 1010.4 |
| 20260502233047 | 58 | 285 | 2.0 | 8.0 | 0.00 | 0.02 | 0.00 | 36 | 1010.3 |
| 20260502232549 | 58 | 328 | 1.0 | 6.0 | 0.00 | 0.02 | 0.00 | 36 | 1010.2 |